Change the Weather History Date:

Tuesday, January 22, 2013

  Actual Average Record
Temperature  
Mean Temperature 16 °F -  
Max Temperature 22 °F 39 °F 68 °F (1999)
Min Temperature 11 °F 22 °F 4 °F (2014)
Degree Days  
Heating Degree Days 48    
Moisture  
Dew Point -1 °F    
Average Humidity 48    
Maximum Humidity 70    
Minimum Humidity 31    
Precipitation  
Precipitation 0.00 in - - ()
Sea Level Pressure  
Sea Level Pressure 30.39 in    
Wind  
Wind Speed 6 mph (WNW)    
Max Wind Speed 16 mph    
Max Gust Speed 21 mph    
Visibility 10 miles    
Events      
Averages and records for this station are not official NWS values.
T = Trace of Precipitation, MM = Missing Value Source: NWS Daily Summary

Daily Weather History Graph

Daily Weather History Graph

Search for Another Location

Airport or City:

Trip Planner

Search our weather history database for the weather conditions in past years. The results will help you decide how hot, cold, wet, or windy it might be!

Date:

Astronomy

Jan. 22, 2013 Rise Set
Actual Time 7:55 AM EST 5:56 PM EST
Civil Twilight 7:26 AM EST 6:24 PM EST
Nautical Twilight 6:54 AM EST 6:56 PM EST
Astronomical Twilight 6:23 AM EST 7:27 PM EST
Moon 2:19 PM EST (1/22) 4:15 AM EST (1/22)
Length of Visible Light 10h 57m
Length of Day
10h 01m
Waxing Gibbous, 82% of the Moon is Illuminated
Jan 22
Waxing Gibbous
Jan 26
Full
Feb 3
Last Quarter
Feb 10
New
Feb 17
First Quarter

Hourly Weather History & Observations

Time (EST) Temp. Windchill Dew Point Humidity Pressure Visibility Wind Dir Wind Speed Gust Speed Precip Events Conditions
12:55 AM 14.5 °F 5.7 °F 1.9 °F 57% 30.32 in 10.0 mi NW 5.8 mph - N/A   Clear
1:55 AM 13.6 °F 4.6 °F 1.8 °F 59% 30.33 in 10.0 mi NW 5.8 mph - N/A   Clear
2:55 AM 11.7 °F - 3.4 °F 69% 30.34 in 10.0 mi Calm Calm - N/A   Clear
3:55 AM 11.5 °F - 3.4 °F 70% 30.35 in 10.0 mi Calm Calm - N/A   Clear
4:55 AM 12.7 °F 0.4 °F 0.1 °F 57% 30.35 in 10.0 mi NW 9.2 mph - N/A   Partly Cloudy
5:55 AM 12.9 °F 2.6 °F -0.2 °F 56% 30.37 in 10.0 mi WNW 6.9 mph - N/A   Overcast
6:55 AM 12.9 °F 0.7 °F 0.1 °F 57% 30.39 in 10.0 mi NNW 9.2 mph - N/A   Mostly Cloudy
7:55 AM 11.7 °F 1.1 °F -0.9 °F 57% 30.41 in 10.0 mi NNW 6.9 mph - N/A   Mostly Cloudy
8:55 AM 11.8 °F 1.3 °F -1.7 °F 55% 30.43 in 10.0 mi NW 6.9 mph - N/A   Scattered Clouds
9:55 AM 15.1 °F 7.7 °F -0.8 °F 50% 30.44 in 10.0 mi SW 4.6 mph - N/A   Clear
10:55 AM 16.3 °F 4.1 °F -4.4 °F 40% 30.45 in 10.0 mi WNW 10.4 mph - N/A   Clear
11:55 AM 18.7 °F 8.6 °F -3.5 °F 38% 30.45 in 10.0 mi WNW 8.1 mph - N/A   Scattered Clouds
12:55 PM 19.6 °F 8.1 °F -4.2 °F 35% 30.42 in 10.0 mi WNW 10.4 mph - N/A   Overcast
1:55 PM 21.4 °F 10.4 °F -4.0 °F 33% 30.39 in 10.0 mi WSW 10.4 mph - N/A   Mostly Cloudy
2:55 PM 22.5 °F 8.9 °F -4.5 °F 31% 30.38 in 10.0 mi West 16.1 mph 20.7 mph N/A   Overcast
3:55 PM 21.6 °F 11.3 °F -4.2 °F 32% 30.40 in 10.0 mi West 9.2 mph - N/A   Mostly Cloudy
4:55 PM 21.0 °F 9.9 °F -3.1 °F 35% 30.38 in 10.0 mi West 10.4 mph - N/A   Mostly Cloudy
5:55 PM 20.3 °F 10.6 °F -3.8 °F 35% 30.38 in 10.0 mi West 8.1 mph - N/A   Mostly Cloudy
6:55 PM 20.5 °F 12.8 °F -0.9 °F 39% 30.40 in 10.0 mi WSW 5.8 mph - N/A   Mostly Cloudy
7:55 PM 19.9 °F 11.1 °F 0.9 °F 44% 30.38 in 10.0 mi WSW 6.9 mph - N/A   Overcast
8:55 PM 18.9 °F 12.1 °F 0.5 °F 45% 30.38 in 10.0 mi West 4.6 mph - N/A   Overcast
9:55 PM 18.9 °F 12.1 °F 1.0 °F 46% 30.39 in 10.0 mi WNW 4.6 mph - N/A   Overcast
10:55 PM 18.7 °F 11.9 °F 2.8 °F 50% 30.40 in 10.0 mi West 4.6 mph - N/A   Mostly Cloudy
11:55 PM 16.7 °F 8.3 °F 3.2 °F 55% 30.40 in 10.0 mi WSW 5.8 mph - N/A   Partly Cloudy